Weather Roundup
Issued by NWS

Home | Current Version | Previous Version | Text Only | Print | Product List | Glossary On
Versions: 1 2 3 4 5 6 7 8 9 10 11 12 13 14 15 16 17 18 19 20 21 22 23 24 25 26 27 28 29 30 31 32 33 34 35 36 37 38 39 40 41 42 43 44 45 46 47 48 49 50
000
NZUS93 KARX 070159
HRRWXR

CURRENT HOURLY OBSERVATIONS ACROSS
MUCH OF THE UPPER MISSISSIPPI VALLEY
NATIONAL WEATHER SERVICE LA CROSSE WI
900 PM CDT MON JUL 06 2015


...SOUTHEAST MINNESOTA...


CITY           SKY/WX    TMP DP  RH WIND       PRES   REMARKS
ROCHESTER      PTCLDY    62  57  83 N7        29.97S SMOKE
ROCHESTER/MAYO FAIR      64  58  81 N5        29.96F
WINONA           N/A     63  57  82 N3        29.94S HAZE
AUSTIN         PTCLDY    64  59  82 N3        29.97S HAZE
ALBERT LEA     PTCLDY    64  61  88 NW3       29.98S HAZE
DODGE CENTER   PTCLDY    63  61  94 N3        29.97F FOG
PRESTON          N/A     61  56  84 N7        29.96S HAZE
OWATONNA       CLEAR     64  57  77 CALM      29.98S HAZE
FARIBAULT      CLEAR     64  61  88 NW3       29.98S
$$

...ELSEWHERE IN MINNESOTA...


CITY           SKY/WX    TMP DP  RH WIND       PRES   REMARKS
MINNEAPOLIS    MOCLDY    67  51  56 N13G23    30.00R
INTNL FALLS    CLOUDY    56  43  61 N9        30.05S
DULUTH         MOCLDY    59  45  59 N9        29.99R
RED WING       CLEAR     64  61  88 CALM      29.95S FOG
REDWOOD FALLS  CLEAR     63  48  58 N8        30.07R
MANKATO        CLEAR     66  52  59 NW16      30.00S
WORTHINGTON    PTCLDY    61  50  67 N12       30.07S
FAIRMONT       PTCLDY    64  52  63 NW14      30.02R
$$

...SOUTHWEST WISCONSIN...


CITY           SKY/WX    TMP DP  RH WIND       PRES   REMARKS
LA CROSSE      CLOUDY    65  57  75 N13       29.93R HAZE
PRAIRIE DU CHI CLOUDY    67  58  72 N20G28    29.89R
BOSCOBEL       CLOUDY    67  61  81 VRB6      29.90R
LONE ROCK      NOT AVBL
PLATTEVILLE    MOCLDY    73  72  95 W9        29.85R
FORT MC COY    CLOUDY    64  56  77 N7        29.92R HAZE
VIROQUA        CLOUDY    63  61  91 N12G20    29.91R
WIS DELLS      HVY RAIN  65  63  91 NW9G16    29.85R
$$

...ELSEWHERE IN WISCONSIN...


CITY           SKY/WX    TMP DP  RH WIND       PRES   REMARKS
MILWAUKEE      LGT RAIN  74  71  91 W5        29.82S
MADISON        LGT RAIN  75  71  87 CALM      29.81S FOG
GREEN BAY      CLOUDY    68  64  87 N17G25    29.82R
EAU CLAIRE     CLOUDY    61  57  87 N5        29.94S FOG
BLACK RVR FLS  CLOUDY    64  57  76 N9        29.92R HAZE
MEDFORD        CLOUDY    59  56  90 NW9       29.93S FOG
WAUSAU         CLOUDY    62  56  80 N8G17     29.89R HAZE
WIS RAPIDS     CLOUDY    64  56  75 N14       29.90R
MARSHFIELD     CLOUDY    62  54  74 N10       29.91R HAZE
RICE LAKE      MOCLDY    63  58  84 CALM      29.98R HAZE
$$

...NORTHEAST IOWA...


CITY           SKY/WX    TMP DP  RH WIND       PRES   REMARKS
DECORAH          N/A    N/A N/A N/A MISG        N/A
MASON CITY       N/A     65  59  81 N8        29.99R
CHARLES CITY   MOCLDY    66  61  82 N12       29.96R HAZE
OELWEIN          N/A     66  61  82 N13       29.92R HAZE
$$

...ELSEWHERE IN IOWA...


CITY           SKY/WX    TMP DP  RH WIND       PRES   REMARKS
DES MOINES     CLOUDY    71  60  68 N13       29.93R HAZE
IOWA CITY      CLOUDY    76  70  82 NW7       29.87S
FORT DODGE     CLOUDY    66  57  72 N7        29.99R
$$

...NORTHERN ILLINOIS...


CITY           SKY/WX    TMP DP  RH WIND       PRES   REMARKS
CHICAGO-OHARE  TSTM      74  71  91 W17G25    29.88R FOG
CHICAGO-MIDWAY LGT RAIN  81  68  64 S13       29.86R
MOLINE         HVY RAIN  71  69  93 S8        29.86F FOG
ROCKFORD       CLOUDY    73  68  84 S8        29.87R
PEORIA         CLOUDY    83  71  67 SW15G23   29.87S
$$

NOTE: "FAIR" INDICATES FEW OR NO CLOUDS BELOW 12,000 FEET WITH NO
SIGNIFICANT WEATHER AND/OR OBSTRUCTIONS TO VISIBILITY. WIND
SPEEDS ARE IN MILES-PER-HOUR.



USA.gov is the U.S. government's official web portal to all federal, state and local government web resources and services.